Weather Roundup
Issued by NWS Chicago, IL

Home | Current Version | Previous Version | Text Only | Print | Product List | Glossary Off
Versions: 1 2 3 4 5 6 7 8 9 10 11 12 13 14 15 16 17 18 19 20 21 22 23 24 25 26 27 28 29 30 31 32 33 34 35 36 37 38 39 40 41 42 43 44 45 46 47 48 49 50

000
NZUS59 KLOT 252208
HRRLOT

CHICAGO AREA WEATHER ROUNDUP
NATIONAL WEATHER SERVICE CHICAGO/ROMEOVILLE IL
500 PM CDT MON MAY 25 2015

NOTE: "FAIR" INDICATES FEW OR NO CLOUDS BELOW 12,000 FEET WITH NO
SIGNIFICANT WEATHER AND/OR OBSTRUCTIONS TO VISIBILITY.

* THESE STATIONS ARE NOT UNDER NWS QUALITY CONTROL. THEY ALSO MAY NOT
  REPORT WEATHER SUCH AS PRECIPITATION OR FOG.

ILZ005-006-012>014-019>023-252300-
NORTHEAST ILLINOIS

CITY           SKY/WX    TMP DP  RH WIND       PRES   REMARKS
OHARE          PTSUNNY   78  60  53 SW18G25   29.92R
MIDWAY         PTSUNNY   79  61  53 SW14      29.93R HX  80
AURORA         MOSUNNY   79  62  56 SW17G24   29.93R HX  80
LANSING*       PTSUNNY   78  56  47 SW15G22   29.94F
JOLIET*        PTSUNNY   81  62  51 SW12G17   29.94S HX  82
WAUKEGAN       PTSUNNY   77  60  55 SW17G28   29.89R
DUPAGE AIRPORT PTSUNNY   78  60  53 SW22G29   29.92S
WHEELING       PTSUNNY   78  60  53 SW12G23   29.92R
KANKAKEE*      PTSUNNY   80  60  50 SW12      29.96S HX  81
MORRIS*        MOSUNNY   79  62  56 SW15G22   29.93S HX  80
LEWIS AIRPORT* PTSUNNY   79  60  52 SW17G25   29.94R HX  80
NORTHERLY IS     N/A     78  58  49 S13         N/A
$$

WIZ051-052-058>065-066-070>072-252300-
SOUTHEAST WISCONSIN

CITY           SKY/WX    TMP DP  RH WIND       PRES   REMARKS
MILWAUKEE      PTSUNNY   77  60  55 SW18G26   29.87R
KENOSHA*       PTSUNNY   78  62  57 SW17G31   29.89R HX  80
RACINE*        MOSUNNY   78  60  53 SW13G25   29.89R
BURLINGTON     MOSUNNY   77  61  56 SW20G26   29.88S
WAUKESHA       PTSUNNY   73  61  64 SW16G23   29.87R
WEST BEND      MOSUNNY   77  59  53 SW15G25   29.85R
$$

INZ001>003-010>013-019-020-252300-
NORTHWEST INDIANA

CITY           SKY/WX    TMP DP  RH WIND       PRES   REMARKS
GARY*          MOSUNNY   81  59  47 SW14G26   29.95R HX  81
MICHIGAN CITY* NOT AVBL
RENSSELAER*    NOT AVBL
VALPARAISO     PTSUNNY   80  58  46 SW16G28   29.96R HX  80
$$

LMZ740>746-252300-
SOUTHERN LAKE MICHIGAN

STATION/POSITION TIME  SKY/WX   TEMP WIND        PRES    VSBY
                                AIR  DIR/SP/G
                 (UTC)          (F)  (DEG/KT/KT) (MB)    (MI)
HARRISON CRIB    2100            75  230/ 20/ 26   N/A
BURNHAM HARBOR   2200            78  240/ 12/ 17   N/A
CALUMET HARBOR   2100            77  210/  9/ 20   N/A
BURNS HARBOR     2100            76  220/ 16/ 25 1014.2
MICHIGAN CITY    2100            70  220/ 18/ 20   N/A
$$

ABBREVIATIONS USED IN REMARKS
   TC - TEMPERATURE IN CELSIUS
  WCI - WIND CHILL INDEX
   HX - HEAT INDEX
  VSB - VISIBILITY
$$



USA.gov is the U.S. government's official web portal to all federal, state and local government web resources and services.